Location: Gazon
(48.1318°N, 1.2708°W)
Time: 22:45:26
(UTC+00:00)

Okean 2 Rocket - Pass Details

Date: 18 September 2020
Orbit: 616 x 642 km, 82.5° (Epoch: 25 October)

Event Time Altitude Azimuth Distance (km) Brightness Sun altitude
Rises 19:40:23 0° 186° (S) 2,933 6.4 -15.5°
Reaches altitude 10° 19:42:37 10° 185° (S) 2,027 5.5 -15.8°
Maximum altitude 19:47:07 84° 97° (E) 648 3.0 -16.5°
Drops below altitude 10° 19:51:38 10° 11° (N) 2,030 5.8 -17.2°
Sets 19:53:52 0° 11° (N) 2,938 6.7 -17.6°
